Location: Estes Par
(40.3770°N, 10.0000°W)
Time: 04:15:09
(UTC-06:00)

Envisat - Visible Passes

Search period start: 21 October 2017 00:00
Search period end: 31 October 2017 00:00
Orbit: 764 x 766 km, 98.2° (Epoch: 20 October)

Date Brightness Start Highest point End Pass type
(mag) Time Alt. Az. Time Alt. Az. Time Alt. Az.
21 Oct 4.2 14:01:09 29° NNE 14:01:09 29° NNE 14:03:51 10° N visible
21 Oct 5.9 15:41:22 12° NW 15:41:22 12° NW 15:41:53 10° NW visible
22 Oct 4.5 13:24:10 19° NE 13:24:10 19° NE 13:26:25 10° NNE visible
22 Oct 5.2 15:04:23 21° NW 15:04:23 21° NW 15:06:08 10° NNW visible
23 Oct 4.5 14:27:24 27° N 14:27:24 27° N 14:29:37 10° N visible
24 Oct 4.5 13:50:25 23° NNE 13:50:25 23° NNE 13:52:36 10° N visible
24 Oct 5.8 15:30:38 12° NW 15:30:38 12° NW 15:31:11 10° NW visible
25 Oct 4.8 13:13:26 15° NE 13:13:26 15° NE 13:14:55 10° NNE visible
25 Oct 5.2 14:53:38 19° NNW 14:53:38 19° NNW 14:55:08 10° NNW visible
26 Oct 4.7 14:16:39 22° N 14:16:39 22° N 14:18:29 10° N visible
27 Oct 4.7 13:39:39 18° NNE 13:39:39 18° NNE 13:41:18 10° N visible
27 Oct 5.8 15:19:52 12° NW 15:19:52 12° NW 15:20:22 10° NNW visible
28 Oct 5.0 13:02:40 12° NE 13:02:40 12° NE 13:03:15 10° NNE visible
28 Oct 5.2 14:42:52 18° NNW 14:42:52 18° NNW 14:44:06 10° NNW visible
29 Oct 4.9 14:05:53 19° N 14:05:53 19° N 14:07:17 10° N visible
30 Oct 4.9 13:28:53 15° NNE 13:28:53 15° NNE 13:29:55 10° NNE visible
30 Oct 5.7 15:09:06 12° NNW 15:09:06 12° NNW 15:09:27 10° NNW visible
